Theta_e
313 315 317 320 320 321 321 322 323 327 332 334 335 335 328 325 321 317 314 308 309 304 301 304 303 303 302 300 300 299 299 298 298 298 300 301 300 300 301 301 299 298 297
309 312 314 317 318 319 321 322 324 329 332 333 331 331 327 319 314 310 311 307 302 300 301 303 302 301 300 299 298 299 298 297 297 295 296 295 297 298 299 299 298 297 297
305 308 311 314 317 318 320 321 325 330 331 330 328 320 311 305 303 302 303 302 300 299 301 300 301 301 300 298 298 298 297 296 296 295 293 293 292 292 297 296 295 296 295
305 306 308 311 314 317 322 322 326 328 329 327 319 316 315 307 309 305 300 299 298 298 298 300 300 300 299 298 296 296 296 296 294 296 293 294 292 289 289 294 294 294 292
305 305 307 309 312 318 321 323 325 325 324 321 322 321 318 314 308 302 299 296 296 299 298 299 299 298 298 297 296 295 295 295 294 294 293 292 292 291 288 287 290 292 293
305 307 308 311 311 317 321 322 322 322 321 322 321 322 317 306 300 296 294 293 295 298 298 298 298 297 296 295 295 294 294 294 294 293 292 290 289 288 288 287 288 288 290
304 304 307 310 312 314 319 320 320 318 319 320 320 319 310 308 302 298 294 293 295 297 296 296 296 295 295 294 294 294 294 293 293 292 291 291 290 290 289 287 287 286 289
308 305 306 309 312 315 318 319 318 316 317 318 317 310 305 305 299 294 293 295 296 296 296 295 295 294 293 293 293 294 294 293 292 291 291 290 290 290 289 287 286 284 286
307 306 307 310 312 315 318 318 317 315 315 315 309 302 298 297 294 295 296 294 295 294 294 294 293 293 293 292 292 293 292 291 291 291 291 290 290 290 290 289 288 285 281
307 307 307 310 313 316 318 319 317 313 313 311 308 300 296 294 295 293 292 295 294 294 293 293 292 292 292 291 292 292 291 290 291 290 290 289 290 289 289 289 288 287 285
306 307 307 311 314 316 317 315 313 311 308 306 301 298 294 292 295 294 294 294 294 293 292 292 291 291 290 291 291 290 289 288 289 290 289 288 289 288 288 288 287 286 286
305 306 308 311 313 314 313 312 309 307 304 299 298 293 292 292 294 292 294 293 292 292 292 291 290 290 289 289 289 288 289 288 288 288 288 287 287 287 287 287 286 285 286
304 304 304 306 309 310 309 308 306 301 297 296 292 291 291 293 293 293 292 292 291 291 290 290 289 288 288 288 288 288 288 289 288 288 287 287 286 285 286 286 286 286 286
303 303 303 305 307 308 306 303 297 295 294 291 291 291 293 293 292 291 291 291 291 290 289 289 288 287 287 287 287 288 289 289 288 288 287 287 286 285 286 286 286 286 285
302 299 301 302 303 301 297 294 291 291 291 290 290 292 291 291 290 290 290 289 289 289 289 288 287 287 287 286 288 289 289 288 288 288 287 287 287 287 287 286 285 285 284
303 300 299 300 298 295 291 290 288 288 291 291 289 290 290 289 289 289 288 289 288 288 287 287 286 286 285 285 288 289 288 288 287 286 286 286 287 286 287 287 287 286 284
302 301 299 298 295 292 290 288 289 290 290 289 289 289 289 288 288 288 288 288 287 287 287 286 285 285 285 285 287 288 288 287 286 286 286 285 286 286 285 286 287 288 288
303 301 299 294 292 291 290 289 290 289 290 288 288 288 288 287 287 287 287 287 287 287 286 285 285 285 285 285 286 287 287 286 286 286 286 285 285 285 285 285 286 286 285
303 300 297 291 291 291 290 290 289 289 288 288 287 287 287 286 286 286 286 286 286 285 285 285 284 284 285 284 285 286 286 285 285 286 286 285 285 286 287 285 284 283 283
299 297 295 294 293 291 292 290 289 288 287 287 287 287 287 286 286 286 286 285 285 284 285 284 284 283 283 284 285 286 285 284 284 285 285 286 285 286 287 284 282 281 281
294 293 293 291 290 290 291 289 288 286 287 286 286 286 286 286 286 285 285 285 284 284 284 283 284 283 283 284 284 285 285 284 283 284 283 284 286 286 286 285 282 281 283
291 291 289 287 288 289 289 288 286 285 286 285 285 284 285 284 285 285 284 284 284 283 283 283 283 284 284 283 284 285 285 285 283 283 284 284 285 285 284 283 283 284 283
290 291 289 288 289 290 288 284 284 285 284 284 284 284 284 285 285 285 284 284 283 282 282 282 281 282 283 283 283 284 285 285 284 284 285 285 284 283 281 281 282 282 280
287 288 288 287 286 287 285 284 284 284 284 283 284 284 284 283 284 284 284 283 283 282 282 281 281 281 281 282 283 283 284 285 284 284 284 283 282 281 281 280 280 280 280
287 287 286 285 284 285 284 284 284 285 284 284 284 284 284 283 283 283 283 283 283 282 281 281 281 280 280 281 283 283 283 284 283 283 281 279 278 278 278 278 279 279 279
285 285 284 284 283 283 283 283 285 285 284 283 283 283 283 283 283 283 282 281 281 282 281 281 281 281 282 283 283 283 284 284 283 279 277 277 277 276 276 276 277 278 278
Wind_Speed
18 16 16 14 13 13 13 12 12 12 11 11 12 11 10 9 7 7 11 10 11 11 7 7 7 6 5 5 4 4 4 4 6 4 3 2 2 5 4 4 3 3 4
23 21 19 18 15 14 14 13 13 13 13 10 10 9 9 6 7 6 9 10 9 8 8 8 8 7 6 7 5 3 2 3 5 4 3 3 3 2 6 2 1 6 3
23 22 22 21 17 16 14 14 14 14 14 14 9 9 9 7 5 7 7 7 9 6 9 7 8 7 6 6 5 4 3 2 3 5 4 2 2 7 3 5 5 5 6
21 23 22 21 21 17 14 14 14 16 15 17 14 18 11 10 9 10 7 8 9 8 7 8 9 8 6 7 5 4 4 1 2 1 2 3 4 4 6 2 5 4 8
17 20 21 21 20 17 14 15 15 16 16 17 16 15 13 10 11 9 13 9 9 10 10 10 9 8 6 6 6 5 3 2 2 2 3 3 4 5 5 9 6 9 8
13 15 18 17 17 15 13 15 17 17 17 17 17 18 19 17 14 13 10 7 6 8 9 9 8 8 8 7 5 4 3 1 1 2 3 4 4 5 6 9 12 13 11
17 15 15 15 15 16 15 16 18 18 18 18 18 17 17 18 20 19 11 13 9 9 9 9 8 7 7 6 5 4 3 2 2 3 4 4 5 6 7 9 11 12 11
13 14 15 14 16 17 18 18 19 18 18 18 18 15 14 11 11 10 10 8 9 9 10 9 8 8 7 6 4 3 1 2 3 4 4 5 5 6 7 8 10 13 11
13 12 14 13 15 16 19 19 19 17 18 18 16 15 13 15 12 13 11 7 10 10 10 10 9 7 6 5 4 1 1 3 3 4 5 5 5 6 7 8 9 11 15
13 11 10 12 12 15 17 17 16 17 18 18 16 15 15 13 12 11 11 13 12 11 11 9 8 7 5 4 2 1 1 3 3 4 6 7 6 7 7 8 9 10 12
14 12 8 7 10 12 15 16 16 18 18 16 17 18 14 14 12 13 11 12 13 12 10 9 8 6 5 3 1 1 2 4 5 5 6 8 8 7 8 8 9 10 11
11 11 7 5 9 12 15 16 16 16 16 16 17 16 16 14 15 14 13 13 12 11 10 8 6 5 3 1 1 3 3 5 6 7 7 9 7 10 10 8 11 11 12
10 8 4 6 10 13 14 15 16 16 15 17 17 16 15 16 15 15 13 12 12 11 9 7 6 5 2 0 2 4 5 6 7 7 8 10 10 10 9 11 11 11 11
7 6 3 6 9 12 15 16 15 15 15 15 16 16 17 16 15 14 13 11 10 10 8 6 5 3 1 1 3 5 6 7 7 8 9 10 11 11 12 12 14 13 12
5 1 4 7 10 12 14 15 15 13 14 15 15 17 16 15 15 13 12 11 9 8 7 6 4 2 1 2 6 6 7 8 9 10 10 10 12 17 16 11 13 15 13
8 4 6 9 12 14 14 14 14 13 13 14 15 16 16 15 14 13 11 10 9 7 6 5 3 1 2 4 7 8 8 9 10 10 11 11 14 14 18 19 21 19 15
9 8 10 11 11 12 13 15 15 14 14 14 15 15 14 14 13 12 10 9 8 6 5 4 2 2 3 5 8 10 9 9 10 11 11 11 10 14 14 17 23 20 23
6 10 11 12 11 13 14 15 14 14 15 13 15 14 14 14 12 10 9 8 6 5 4 3 2 3 3 6 9 11 10 8 10 11 13 13 13 14 15 18 13 14 17
11 12 14 14 13 14 15 17 16 16 15 15 14 13 13 13 11 10 8 6 5 4 3 1 2 4 5 5 10 11 9 9 11 11 12 12 14 17 23 15 16 18 17
13 15 16 16 16 16 16 17 16 15 14 14 13 12 12 11 10 9 7 5 4 3 1 1 3 3 6 6 10 10 8 10 9 12 13 16 14 21 23 17 17 16 16
15 14 15 14 15 15 16 16 15 14 14 14 13 12 10 10 9 8 6 5 3 1 0 3 4 5 5 7 10 12 9 8 10 10 10 10 20 23 25 24 16 15 17
13 12 13 12 12 14 15 16 15 13 14 13 13 11 10 7 6 7 5 4 2 2 3 5 5 3 5 5 9 12 13 14 11 12 11 12 22 24 24 19 18 22 19
12 12 15 15 12 13 13 16 14 14 13 13 12 11 9 8 6 5 4 2 2 3 4 4 5 6 6 6 10 12 14 15 12 10 16 23 21 22 16 17 20 17 9
12 14 16 15 14 13 14 13 12 13 13 13 11 9 8 7 5 3 3 2 2 3 4 5 6 7 7 7 7 9 10 14 12 14 12 16 17 17 15 13 11 9 9
12 13 14 14 15 15 14 12 12 13 13 12 10 8 6 5 4 3 2 2 2 3 6 5 7 8 8 8 14 14 11 10 13 16 11 9 9 10 9 9 10 10 10
14 15 15 16 15 15 14 12 11 11 12 11 7 6 5 4 2 1 0 2 3 5 6 8 8 8 12 15 16 17 18 20 20 11 9 9 9 10 10 10 11 11 12
Wind_Direction
253 249 254 248 237 234 230 223 207 200 189 187 188 187 176 171 156 129 142 134 135 127 122 141 139 131 119 109 98 95 50 34 354 315 320 228 228 238 216 232 278 210 291
249 243 241 244 235 231 222 216 208 193 192 187 181 181 162 137 131 112 144 147 129 141 132 156 139 133 124 107 92 80 97 53 18 352 293 322 186 156 221 339 210 294 289
249 243 235 234 232 229 219 212 204 190 185 183 152 137 119 113 115 127 125 125 118 121 142 152 134 129 119 110 100 80 45 55 58 21 332 293 313 334 249 242 316 276 322
243 247 245 238 227 224 216 205 196 187 181 165 172 175 162 155 162 152 132 127 128 134 157 142 130 126 121 117 106 93 76 347 22 208 20 341 318 306 301 208 259 318 294
246 243 239 235 234 220 206 195 187 185 177 180 178 175 156 142 141 143 138 134 140 144 155 136 130 126 115 113 118 121 104 69 342 326 321 295 279 268 281 296 307 301 306
256 253 246 236 228 221 200 189 183 182 178 180 177 172 159 146 150 149 139 139 142 143 147 133 129 125 122 125 126 121 107 96 290 300 281 295 303 304 292 290 299 301 305
278 268 251 233 218 207 196 188 183 180 178 176 173 168 158 162 161 154 151 151 153 154 149 137 136 128 123 131 136 131 143 202 289 290 299 283 280 289 288 291 295 298 303
298 258 249 232 217 200 195 187 183 175 174 171 166 158 154 158 151 148 143 148 152 146 145 134 131 133 136 137 141 143 181 236 275 285 286 292 287 288 287 293 301 302 297
327 285 251 228 219 199 187 185 180 173 170 167 152 146 134 143 136 137 140 141 130 138 138 137 137 137 136 142 150 160 237 267 274 294 285 284 292 289 289 289 289 294 301
336 321 263 233 203 196 182 176 174 170 163 155 151 142 138 130 135 132 131 136 140 135 138 138 138 139 142 146 157 219 243 279 301 304 299 294 295 296 292 288 287 284 288
337 345 293 227 189 176 168 163 163 158 155 152 143 139 130 128 133 134 133 140 135 138 139 140 141 144 146 143 207 283 284 303 309 296 295 299 299 294 296 293 290 287 287
347 5 321 207 170 161 161 156 152 151 149 143 137 128 126 131 135 135 137 139 134 135 136 136 136 134 129 142 299 299 301 303 298 299 299 300 301 297 298 295 294 290 290
359 17 315 196 173 159 156 150 147 139 141 136 126 125 126 135 136 135 136 132 132 130 130 133 130 128 123 245 305 303 299 295 294 299 300 300 301 298 300 299 296 293 291
360 15 279 175 167 156 150 139 131 135 134 125 125 126 135 135 132 130 130 131 132 130 126 121 118 119 141 306 307 301 299 299 298 298 291 296 297 296 301 297 299 298 300
355 341 214 169 155 144 131 131 125 128 124 123 124 129 128 127 124 126 127 127 126 122 121 125 126 118 333 337 323 310 305 299 299 295 294 294 297 297 295 300 298 303 301
330 202 186 166 156 146 137 129 122 122 123 116 123 126 124 123 122 126 128 126 126 124 129 125 106 55 331 347 313 314 308 301 297 299 300 299 300 297 300 302 300 297 291
294 183 178 161 150 139 133 127 121 122 117 126 123 123 125 121 125 129 129 130 131 135 128 114 78 346 332 331 322 316 303 304 301 300 303 305 303 305 306 303 294 300 297
250 163 159 139 132 129 123 120 123 120 124 122 123 125 124 123 129 131 129 131 136 130 119 95 24 320 337 323 321 319 300 298 299 302 305 307 310 307 307 305 308 298 294
140 147 137 130 129 126 126 123 124 127 125 128 126 126 127 130 133 133 135 131 133 126 106 51 325 319 312 332 323 319 311 305 303 305 304 308 302 305 312 315 302 308 306
121 127 129 131 129 130 132 128 128 126 124 127 124 126 131 132 130 130 130 121 114 110 123 287 307 332 312 322 323 321 310 308 312 309 309 307 311 314 311 313 314 306 309
114 119 126 125 127 133 131 122 124 120 121 121 122 122 122 120 123 124 124 125 118 135 329 309 309 305 322 326 323 322 312 315 314 311 309 313 318 311 320 314 308 306 306
104 109 112 114 123 128 124 120 115 123 122 120 117 116 117 116 123 124 122 115 92 7 335 319 317 317 316 307 316 319 317 316 311 310 313 314 311 318 314 312 308 305 312
115 118 117 119 121 125 123 119 126 125 121 118 117 118 119 117 119 124 124 107 32 344 329 323 323 325 327 321 322 315 311 310 309 310 309 311 317 315 312 311 310 311 304
116 121 119 117 113 114 109 112 121 124 123 123 124 125 120 117 109 100 81 30 353 327 325 323 320 320 320 324 328 323 320 314 316 320 310 315 311 307 305 309 310 308 307
116 117 116 113 111 115 114 118 127 130 124 122 123 119 114 107 106 85 47 352 1 324 323 323 319 319 318 324 318 318 314 318 320 324 312 311 312 313 313 315 314 312 314
115 108 110 114 118 118 118 123 130 133 129 121 117 111 111 107 99 67 39 177 311 313 316 317 313 314 308 313 318 313 317 324 326 314 309 312 312 313 317 316 314 313 312